Location: Ulm
(48.3980°N, 9.9777°E)
Time: 15:58:03
(UTC+02:00)

ISS - Visible Passes

Search period start: 24 May 2018 00:00
Search period end: 03 June 2018 00:00
Orbit: 402 x 407 km, 51.6° (Epoch: 25 May)

Date Brightness Start Highest point End Pass type
(mag) Time Alt. Az. Time Alt. Az. Time Alt. Az.
24 May -3.1 01:21:58 10° WNW 01:25:11 53° N 01:27:54 13° E visible
24 May -2.6 02:58:30 10° WNW 03:00:18 28° W 03:00:18 28° W visible
24 May -3.3 22:52:53 10° W 22:56:07 62° NNW 22:59:22 10° ENE visible
25 May -2.8 00:29:43 10° WNW 00:32:55 46° N 00:35:43 12° ENE visible
25 May -2.7 02:06:17 10° WNW 02:08:18 34° WNW 02:08:18 34° WNW visible
25 May -3.8 22:00:37 10° WSW 22:03:53 83° NNW 22:07:10 10° ENE visible
25 May -2.7 23:37:26 10° WNW 23:40:36 45° N 23:43:46 10° ENE visible
26 May -3.7 01:14:04 10° WNW 01:17:14 73° N 01:17:14 73° N visible
26 May -2.8 22:45:06 10° W 22:48:18 48° N 22:51:29 10° ENE visible
27 May -3.2 00:21:51 10° WNW 00:25:05 57° NNE 00:26:25 30° E visible
27 May -1.4 01:58:25 10° WNW 01:59:02 14° W 01:59:02 14° W visible
27 May -3.1 21:52:45 10° W 21:56:00 57° NNW 21:59:13 10° ENE visible
27 May -2.9 23:29:36 10° WNW 23:32:47 48° N 23:35:42 12° E visible
28 May -2.9 01:06:07 10° WNW 01:08:19 38° W 01:08:19 38° W visible
28 May -2.7 22:37:17 10° WNW 22:40:26 45° N 22:43:36 10° ENE visible
29 May -3.9 00:13:52 10° WNW 00:17:10 84° NNE 00:17:39 61° E visible
29 May -3.4 23:21:37 10° WNW 23:24:52 62° NNE 23:27:01 19° E visible
30 May -1.9 00:58:14 10° W 00:59:38 21° W 00:59:38 21° W visible
30 May -3.0 22:29:20 10° WNW 22:32:32 50° N 22:35:45 10° E visible
31 May -3.7 00:05:52 10° WNW 00:09:02 56° SSW 00:09:02 56° SSW visible
31 May -3.9 23:13:33 10° WNW 23:16:50 86° SSW 23:18:27 27° ESE visible
01 Jun -1.3 00:50:37 10° W 00:51:05 12° W 00:51:05 12° W visible
01 Jun -3.6 22:21:16 10° WNW 22:24:32 68° NNE 22:27:48 10° ESE visible
01 Jun -2.6 23:57:57 10° W 00:00:31 29° SW 00:00:31 29° SW visible
02 Jun -3.4 23:05:30 10° WNW 23:08:40 47° SSW 23:09:58 29° SSE visible
